Location: *
(49.3500°N, 12.6000°E)
Time: 14:56:53
(UTC+00:00)

STARLINK-80 - Pass Details

Date: 18 October 2019
Orbit: 494 x 496 km, 53.0° (Epoch: 17 November)

Event Time Altitude Azimuth Distance (km) Brightness Sun altitude
Rises 16:59:06 0° 270° (W) 2,581 9.5 -8.0°
Reaches altitude 10° 17:01:20 10° 276° (W) 1,698 7.7 -8.4°
Maximum altitude 17:05:04 50° 353° (N) 644 4.0 -9.0°
Enters shadow 17:08:28 12° 68° (ENE) 1,565 5.3 -9.6°
